sat.trackr.live / text

‹ back to catalog

STARLINK-5617

NORAD 55753 · 2023-028N

PAYLOAD ACTIVE UNKNOWN

§ Identity

Operator
Country
US
Launch date
2023-03-03
Launch site
AFWTR
Launch vehicle
Mass (kg)
RCS (m²)

Purposes: comms

External: N2YO · Heavens-Above · Gunter

§ Orbital elements

Epoch: 2026-05-25T03:32:19.603968Z

Period
96.11 min
Inclination
70.0006°
Eccentricity
0.0002736
Mean motion
14.98331410 rev/d
Perigee alt
570.1 km
Apogee alt
574.0 km
Semi-major
6,950.2 km
B*
3.1344e-5
RAAN
51.6484°
Arg perigee
270.1620°
Mean anomaly
89.9225°
Rev number
17,749

§ Raw data

STARLINK-56171 55753U 23028N   26145.14744912  .00000281  00000+0  31344-4 0  99992 55753  70.0006  51.6484 0002736 270.1620  89.9225 14.98331410177491

JSON: /api/v1/satellites/55753 · /tle

For live sub-satellite position, see the globe view (requires WebGL).

§ Visibility from observer

Set your observer location to see the next 7 days of passes ≥ 10°. The values pass through the URL so the page stays shareable.

No JS? Fill the form by hand. The geolocation button needs JavaScript.